Regional Weather Roundup
Issued by NWS

Home | Current Version | Previous Version | Graphics & Text | Print | Product List | Glossary On
Versions: 1 2 3 4 5 6 7 8 9 10 11 12 13 14 15 16 17 18 19 20 21 22 23 24 25 26 27 28 29 30 31 32 33 34 35 36 37 38 39 40 41 42 43 44 45 46 47 48 49 50
000
ASUS44 KMEG 190900
RWRTN
TENNESSEE HOURLY STATE WEATHER ROUNDUP
NATIONAL WEATHER SERVICE MEMPHIS TN
400 AM CDT SUN APR 19 2015

TNZ002-004-019-021-049-052-054-088>092-191000-
WEST TENNESSEE

CITY           SKY/WX    TMP DP  RH WIND       PRES   REMARKS
MEMPHIS INTL   CLOUDY    66  63  90 S7        29.70F
NWS MEMPHIS      N/A     64 N/A N/A MISG        N/A
JACKSON        LGT RAIN  65  63  93 CALM      29.71F
DYERSBURG      CLOUDY    64  52  63 CALM      29.72S
UNION CITY     CLOUDY    64  32  29 SE3       29.71S
PARIS          CLOUDY    63  63 100 CALM      29.72F
LEXINGTON      CLOUDY    63  63 100 CALM      29.72F
SAVANNAH       CLOUDY    64  32  29 CALM      29.72F
$$

TNZ008-025-027-028-033-062-065-066-191000-
NORTH MIDDLE TENNESSEE

CITY           SKY/WX    TMP DP  RH WIND       PRES   REMARKS
NASHVILLE      LGT RAIN  65  63  93 SE3       29.77F
CLARKSVILLE    LGT RAIN  64  63  96 E5        29.74F
COOKEVILLE     PTCLDY    64  63  94 SE5       29.80F
CROSSVILLE     CLOUDY    64  60  87 S5        29.86F
$$

TNZ061-075-076-078-094-096-097-191000-
SOUTH MIDDLE TENNESSEE

CITY           SKY/WX    TMP DP  RH WIND       PRES   REMARKS
FAYETTEVILLE   MOCLDY    63  63 100 SE7       29.77F
TULLAHOMA      MOCLDY    64  63  94 CALM      29.80F
WINCHESTER     CLOUDY    64  63  94 SE7       29.79F
MCMINNVILLE    CLOUDY    66  66 100 CALM      29.80F
COLUMBIA       CLOUDY    64  32  29 CALM      29.73F
SHELBYVILLE    CLOUDY    66  66 100 SE7       29.78F
$$

TNZ017-018-042-046-047-191000-
NORTHEAST TENNESSEE

CITY           SKY/WX    TMP DP  RH WIND       PRES   REMARKS
TRI CITIES     CLOUDY    61  58  90 CALM      29.91F
ELIZABETHTON   PTSUNNY   63  55  77 E5        29.92S
$$

TNZ012-013-036-069-073-074-191000-
CENTRAL EAST TENNESSEE

CITY           SKY/WX    TMP DP  RH WIND       PRES   REMARKS
KNOXVILLE      LGT RAIN  63  63 100 CALM      29.84F FOG
OAK RIDGE      CLOUDY    65  62  90 CALM      29.86F
GATLINBURG     CLOUDY    63  63 100 CALM      29.85F VSB 1/2
$$

TNZ083-085-099-191000-
SOUTHEAST TENNESSEE

CITY           SKY/WX    TMP DP  RH WIND       PRES   REMARKS
CHATTANOOGA    LGT RAIN  66  64  93 SE3       29.82F
$$

SKY/WX REPORTED AS FAIR MEANS FEW OR NO CLOUDS BELOW
12 THOUSAND FEET.



USA.gov is the U.S. government's official web portal to all federal, state and local government web resources and services.